GW0543 Weather Reports


Display with metric or nautical units.
time (UTC)temp
F
wind
direction
speed
MPH
gust
MPH
rain 1hr
in
rain 24hr
in
rain mn
in
humidity
%
barometer
mb
20260507181559 63 151 0.0 3.0 0.00 0.14 0.00 65 1012.9
20260507180056 64 172 2.0 8.0 0.00 0.14 0.00 62 1012.9
20260507174601 66 147 3.0 7.0 0.00 0.22 0.00 59 1012.8
20260507173103 68 0 1.0 7.0 0.00 0.22 0.00 57 1012.7
20260507171552 67 237 2.0 8.0 0.00 0.22 0.00 59 1012.7
20260507170056 67 0 3.0 9.0 0.00 0.22 0.00 59 1012.8
20260507164629 68 183 3.0 7.0 0.00 0.24 0.00 58 1012.7
20260507163058 68 244 2.0 6.0 0.00 0.24 0.00 58 1012.8
20260507161558 68 0 2.0 5.0 0.00 0.24 0.00 58 1012.8
20260507160056 66 286 2.0 4.0 0.00 0.24 0.00 60 1012.9
20260507154557 66 0 1.0 5.0 0.00 0.33 0.00 59 1013.0
20260507153056 67 244 3.0 7.0 0.00 0.33 0.00 58 1013.0
20260507151554 66 249 3.0 7.0 0.00 0.33 0.00 59 1013.1
20260507150053 66 196 3.0 12.0 0.00 0.33 0.00 60 1013.4
20260507144602 66 211 4.0 10.0 0.00 0.77 0.00 61 1013.2
20260507143100 66 219 3.0 10.0 0.00 0.77 0.00 60 1013.2
20260507141604 67 219 2.0 7.0 0.00 0.77 0.00 58 1013.2
20260507140051 68 168 3.0 9.0 0.00 0.77 0.00 58 1013.3
20260507134552 68 204 4.0 6.0 0.00 0.81 0.00 1013.4
20260507133053 71 146 4.0 10.0 0.00 0.81 0.00 58 1013.3
20260507131602 70 154 5.0 14.0 0.00 0.81 0.00 61 1013.3
20260507130058 69 6.0 6.0 0.00 0.81 0.00 64 1013.5
20260507124602 68 232 2.0 14.0 0.00 0.81 0.00 64 1013.4
20260507123053 69 130 2.0 6.0 0.00 0.81 0.00 63 1013.3
20260507121556 69 155 2.0 8.0 0.00 0.81 0.00 62 1013.4
20260507120057 69 146 2.0 10.0 0.00 0.81 0.00 63 1013.5
20260507114607 70 240 2.0 9.0 0.00 0.81 0.00 60 1013.6
20260507113124 68 144 2.0 6.0 0.00 0.81 0.00 64 1013.8
20260507111559 68 228 2.0 5.0 0.00 0.81 0.00 61 1013.9
20260507110056 68 183 1.0 9.0 0.00 0.81 0.00 62 1014.0
20260507104556 67 166 1.0 6.0 0.00 0.81 0.00 64 1014.2
20260507103056 66 182 2.0 9.0 0.00 0.81 0.00 67 1014.3
20260507101557 66 209 3.0 9.0 0.00 0.81 0.00 68 1014.5
20260507100106 65 208 3.0 6.0 0.00 0.81 0.00 65 1014.4
20260507094602 64 175 0.0 6.0 0.00 0.81 0.00 69 1014.4
20260507093055 63 252 2.0 7.0 0.00 0.81 0.00 69 1014.4
20260507091601 63 214 2.0 7.0 0.00 0.81 0.00 71 1014.5
20260507090053 62 205 2.0 5.0 0.00 0.81 0.00 72 1014.5
20260507084604 63 0 1.0 6.0 0.00 0.81 0.00 71 1014.6
20260507083053 61 268 1.0 7.0 0.00 0.81 0.00 73 1014.7
20260507081558 62 0 1.0 5.0 0.00 0.81 0.00 71 1014.8
20260507080055 60 241 1.0 3.0 0.00 0.81 0.00 74 1014.7
20260507074558 59 212 1.0 3.0 0.00 0.81 0.00 75 1014.6
20260507073057 59 0 0.0 2.0 0.00 0.81 0.00 76 1014.7
20260507071554 58 0 1.0 5.0 0.00 0.81 0.00 80 1014.7
20260507070104 57 58 0.0 6.0 0.00 0.81 0.00 80 1014.7
20260507064555 57 80 1.0 5.0 0.00 0.81 0.00 82 1014.5
20260507063056 0 0.0 0.0 0.00 0.81 0.00 1014.4
20260507061554 53 0 1.0 3.0 0.00 0.81 0.00 94 1014.2
20260507060105 52 0 0.0 3.0 0.00 0.81 0.00 96 1014.2
20260507054558 50 147 1.0 3.0 0.00 0.81 0.00 96 1014.0
20260507053059 49 0 0.0 2.0 0.00 0.81 0.00 95 1014.2
20260507051555 49 0 0.0 0.0 0.00 0.81 0.00 95 1014.2
20260507044610 48 0 0.0 1.0 0.00 0.81 0.00 95 1014.0
20260507043104 49 0 0.0 3.0 0.00 0.81 0.00 95 1013.9
20260507041601 49 0 0.0 0.0 0.00 0.81 0.00 94 1014.0
20260507040058 49 0 0.0 1.0 0.00 0.81 0.00 94 1013.9
20260507034555 49 0 0.0 1.0 0.00 0.81 0.00 94 1013.8
20260507033056 0 0.0 0.0 0.00 0.81 0.00 1013.8
20260507031554 0 0.0 0.0 0.00 0.81 0.00 1013.9
20260507030052 0 0.0 0.0 0.00 0.81 0.00 1013.7
20260507024556 0 0.0 0.0 0.00 0.81 0.00 1013.9
20260507023108 0 0.0 0.0 0.00 0.81 0.00 1014.0
20260507021554 0 0.0 0.0 0.00 0.81 0.00 1013.8
20260507014557 0 0.0 0.0 0.00 0.81 0.00 1013.8
20260507013051 0 0.0 0.0 0.00 0.81 0.00 1014.0
20260507011552 0 0.0 0.0 0.00 0.81 0.00 1014.2
20260507010054 53 51 2.0 3.0 0.00 0.81 0.00 95 1014.3
20260507004555 53 51 1.0 4.0 0.00 0.81 0.00 95 1014.4
20260507003114 53 57 1.0 2.0 0.00 0.81 0.00 95 1014.6
20260507001613 53 57 1.0 3.0 0.00 0.81 0.00 95 1014.6
20260507000056 53 63 0.0 2.0 0.00 0.80 0.00 95 1014.8
20260506234556 53 0 0.0 1.0 0.00 0.80 0.00 95 1014.8
20260506233055 53 0 0.0 0.0 0.00 0.80 0.00 95 1014.9
20260506231605 53 44 1.0 3.0 0.00 0.80 0.00 95 1014.9
20260506230115 53 0 1.0 3.0 0.00 0.80 0.00 95 1014.9
20260506224552 53 0 0.0 0.0 0.00 0.80 0.00 95 1015.0
20260506223100 53 0 0.0 0.0 0.00 0.80 0.00 95 1014.9
20260506221605 54 0 0.0 1.0 0.00 0.80 0.00 95 1014.8
20260506220058 53 0 0.0 3.0 0.00 0.80 0.00 95 1014.9
20260506214557 54 0 0.0 1.0 0.00 0.79 0.79 95 1014.9
20260506213102 54 0 0.0 1.0 0.00 0.79 0.79 95 1014.7
20260506211554 54 237 0.0 2.0 0.00 0.79 0.79 94 1014.6
20260506210058 54 0 0.0 1.0 0.00 0.79 0.79 94 1014.6
20260506204556 54 0 0.0 0.0 0.00 0.79 0.79 95 1014.6
20260506203116 54 0 0.0 2.0 0.00 0.79 0.79 94 1014.5
20260506201553 54 0 0.0 3.0 0.01 0.79 0.79 94 1014.4
20260506200058 54 0 0.0 3.0 0.02 0.79 0.79 94 1014.4
20260506194554 54 0 0.0 2.0 0.03 1.59 0.79 94 1014.1
20260506193101 54 0 0.0 3.0 0.07 1.58 0.78 94 1014.2
20260506191555 54 0 0.0 3.0 0.08 1.57 0.77 94 1014.1
20260506190058 54 81 1.0 3.0 0.11 1.56 0.77 94 1014.0
20260506184557 54 0 0.0 3.0 0.09 1.62 0.75 94 1013.9
20260506183105 54 0 0.0 1.0 0.04 1.57 0.70 94 1013.8